Location: Hollin Hills
(38.7573°N, 77.0661°W)
Time: 10:02:01
(UTC+00:00)

ISS - Visible Passes

Search period start: 18 April 2026 00:00
Search period end: 28 April 2026 00:00
Orbit: 416 x 425 km, 51.6° (Epoch: 17 April)

Date Brightness Start Highest point End Pass type
(mag) Time Alt. Az. Time Alt. Az. Time Alt. Az.
18 Apr -3.7 09:36:40 14° SW 09:39:29 83° SE 09:42:52 10° NE visible
19 Apr -3.0 08:51:25 36° S 08:52:15 45° SE 08:55:30 10° ENE visible
20 Apr -1.6 08:06:05 22° ESE 08:06:05 22° ESE 08:07:55 10° ENE visible
20 Apr -2.7 09:39:03 12° W 09:41:48 34° NNW 09:44:55 10° NE visible
21 Apr -3.4 08:53:37 41° W 08:54:25 55° NW 08:57:45 10° NE visible
22 Apr -2.5 08:08:06 42° NE 08:08:06 42° NE 08:10:28 10° NE visible
22 Apr -1.5 09:41:57 10° WNW 09:44:17 17° NNW 09:46:38 10° NNE visible
23 Apr -0.6 07:22:31 14° ENE 07:22:31 14° ENE 07:23:03 10° ENE visible
23 Apr -2.0 08:55:28 19° WNW 08:56:45 23° NNW 08:59:33 10° NNE visible
24 Apr -2.2 08:09:50 31° N 08:09:50 31° N 08:12:23 10° NE visible
24 Apr -1.0 09:45:47 10° NNW 09:46:54 11° NNW 09:48:01 10° N visible
25 Apr -0.9 07:24:08 18° NE 07:24:08 18° NE 07:25:09 10° NE visible
25 Apr -1.1 08:57:29 10° NW 08:59:16 13° NNW 09:01:02 10° NNE visible
26 Apr -1.4 08:11:20 17° NNW 08:11:38 17° NNW 08:13:57 10° NNE visible
27 Apr -0.9 07:25:32 17° N 07:25:32 17° N 07:26:49 10° NNE visible
